DF9PM-13 Weather Reports


Display with metric or nautical units.
time (UTC)temp
F
wind
direction
speed
MPH
gust
MPH
rain 1hr
in
rain 24hr
in
rain mn
in
humidity
%
barometer
mb
20260503222026 61 190 3.0 0.0 0.00 0.00 0.00 86 1013.8
20260503221527 61 190 3.0 0.0 0.00 0.00 0.00 89 1013.8
20260503221026 60 200 2.0 0.0 0.00 0.00 0.00 92 1013.8
20260503220526 61 200 2.0 0.0 0.00 0.00 0.00 89 1013.8
20260503220026 60 200 2.0 0.0 0.00 0.00 0.00 93 1013.8
20260503215526 61 200 2.0 0.0 0.00 0.00 0.00 93 1013.7
20260503215026 61 200 2.0 0.0 0.00 0.00 0.00 91 1013.8
20260503214526 62 200 2.0 0.0 0.00 0.00 0.00 89 1013.8
20260503214026 62 200 2.0 0.0 0.00 0.00 0.00 89 1013.8
20260503213526 62 200 3.0 0.0 0.00 0.00 0.00 86 1013.7
20260503213026 62 200 3.0 0.0 0.00 0.00 0.00 90 1013.6
20260503212526 62 200 3.0 0.0 0.00 0.00 0.00 93 1013.6
20260503212026 62 230 3.0 0.0 0.00 0.00 0.00 89 1013.6
20260503211526 62 230 3.0 0.0 0.00 0.00 0.00 90 1013.6
20260503211026 61 230 5.0 0.0 0.00 0.00 0.00 91 1013.6
20260503210526 62 230 5.0 0.0 0.00 0.00 0.00 89 1013.6
20260503210026 61 230 7.0 0.0 0.00 0.00 0.00 89 1013.7
20260503205526 61 230 7.0 0.0 0.00 0.00 0.00 93 1013.7
20260503205025 62 230 7.0 0.0 0.00 0.00 0.00 99 1013.6
20260503204525 62 230 7.0 0.0 0.00 0.00 0.00 90 1013.6
20260503204025 63 220 6.0 0.0 0.00 0.00 0.00 88 1013.6
20260503203525 64 220 6.0 0.0 0.00 0.00 0.00 88 1013.6
20260503203025 63 220 6.0 0.0 0.00 0.00 0.00 81 1013.7
20260503202525 64 220 9.0 0.0 0.00 0.00 0.00 76 1013.7
20260503202025 64 220 9.0 0.0 0.00 0.00 0.00 75 1013.7
20260503201525 64 220 9.0 0.0 0.00 0.00 0.00 68 1013.8
20260503201025 63 220 9.0 0.0 0.00 0.00 0.00 66 1013.9
20260503200525 62 230 12.0 21.0 0.00 0.00 0.00 68 1013.9
20260503200025 63 230 12.0 21.0 0.00 0.00 0.00 66 1014.1
20260503195525 63 230 12.0 21.0 0.00 0.00 0.00 60 1014.0
20260503195025 64 230 12.0 21.0 0.00 0.00 0.00 55 1014.0
20260503194525 64 230 12.0 21.0 0.00 0.00 0.00 51 1013.9
20260503194025 64 230 12.0 21.0 0.00 0.00 0.00 49 1013.8
20260503193525 64 230 12.0 21.0 0.00 0.00 0.00 46 1013.9
20260503193025 65 240 7.0 0.0 0.00 0.00 0.00 44 1013.7
20260503192525 66 240 7.0 0.0 0.00 0.00 0.00 43 1013.7
20260503192024 66 240 10.0 0.0 0.00 0.00 0.00 41 1013.6
20260503191524 66 240 10.0 0.0 0.00 0.00 0.00 41 1013.4
20260503191024 66 250 7.0 0.0 0.00 0.00 0.00 42 1013.3
20260503190524 67 250 7.0 0.0 0.00 0.00 0.00 41 1013.3
20260503190024 67 250 7.0 0.0 0.00 0.00 0.00 41 1013.2
20260503185525 67 250 7.0 0.0 0.00 0.00 0.00 41 1013.1
20260503185024 67 250 7.0 0.0 0.00 0.00 0.00 40 1013.0
20260503184525 67 250 7.0 0.0 0.00 0.00 0.00 41 1013.0
20260503184024 68 250 8.0 0.0 0.00 0.00 0.00 43 1012.9
20260503183525 68 250 7.0 0.0 0.00 0.00 0.00 42 1012.8
20260503183024 68 250 8.0 0.0 0.00 0.00 0.00 42 1012.8
20260503182524 68 250 8.0 0.0 0.00 0.00 0.00 41 1012.9
20260503182024 69 250 8.0 0.0 0.00 0.00 0.00 41 1012.8
20260503181524 69 250 8.0 0.0 0.00 0.00 0.00 41 1012.7
20260503181024 70 250 8.0 0.0 0.00 0.00 0.00 40 1012.6
20260503180524 70 260 6.0 0.0 0.00 0.00 0.00 39 1012.6
20260503180024 70 260 6.0 0.0 0.00 0.00 0.00 39 1012.4
20260503175524 70 260 6.0 0.0 0.00 0.00 0.00 38 1012.4
20260503175023 70 260 6.0 0.0 0.00 0.00 0.00 37 1012.3
20260503174523 71 260 6.0 0.0 0.00 0.00 0.00 37 1012.3
20260503174023 71 220 7.0 0.0 0.00 0.00 0.00 36 1012.3
20260503173523 71 220 7.0 0.0 0.00 0.00 0.00 36 1012.2
20260503173023 71 220 7.0 0.0 0.00 0.00 0.00 37 1012.2
20260503172523 71 220 7.0 0.0 0.00 0.00 0.00 35 1012.2
20260503172023 71 220 7.0 0.0 0.00 0.00 0.00 35 1012.1
20260503171523 72 220 7.0 0.0 0.00 0.00 0.00 35 1012.1
20260503171023 72 220 7.0 0.0 0.00 0.00 0.00 36 1012.0
20260503170523 72 230 9.0 0.0 0.00 0.00 0.00 33 1012.0
20260503150522 75 190 5.0 0.0 0.00 0.00 0.00 27 1012.1
20260503131020 74 210 6.0 0.0 0.00 0.00 0.00 38 1013.0
20260503130520 74 230 9.0 0.0 0.00 0.00 0.00 39 1012.9
20260503110519 74 230 12.0 24.0 0.00 0.00 0.00 29 1013.6
20260503081517 69 180 0.0 0.0 0.00 0.00 0.00 56 1014.9
20260503081017 68 180 0.0 0.0 0.00 0.00 0.00 57 1014.9
20260503080517 69 180 1.0 0.0 0.00 0.00 0.00 50 1014.9
20260503072516 63 180 4.0 0.0 0.00 0.00 0.00 87 1015.2
20260503072016 62 180 4.0 0.0 0.00 0.00 0.00 86 1015.1
20260503071516 63 180 4.0 0.0 0.00 0.00 0.00 82 1015.0
20260503071016 62 180 4.0 0.0 0.00 0.00 0.00 83 1015.0
20260503070516 62 180 4.0 0.0 0.00 0.00 0.00 86 1015.1
20260503055015 57 221 2.0 12.0 0.00 0.00 0.00 10 1014.7
20260503054515 57 221 2.0 12.0 0.00 0.00 0.00 10 1014.7
20260503054015 57 200 0.0 1.0 0.00 0.00 0.00 98 1014.6
20260503053515 57 200 0.0 1.0 0.00 0.00 0.00 10 1014.6
20260503053015 57 200 0.0 1.0 0.00 0.00 0.00 10 1014.6
20260503052515 57 200 1.0 2.0 0.00 0.00 0.00 10 1014.5
20260503052015 57 200 0.0 1.0 0.00 0.00 0.00 10 1014.5
20260503051515 56 200 0.0 1.0 0.00 0.00 0.00 10 1014.6
20260503051015 56 200 0.0 1.0 0.00 0.00 0.00 10 1014.6
20260503050514 56 200 1.0 2.0 0.00 0.00 0.00 10 1014.5
20260503050015 56 200 1.0 2.0 0.00 0.00 0.00 10 1014.5
20260503045514 55 213 0.0 1.0 0.00 0.00 0.00 10 1014.6
20260503045014 55 213 0.0 1.0 0.00 0.00 0.00 10 1014.5
20260503044514 56 213 1.0 2.0 0.00 0.00 0.00 10 1014.5
20260503044014 55 213 1.0 2.0 0.00 0.00 0.00 10 1014.5
20260503043514 55 213 1.0 2.0 0.00 0.00 0.00 10 1014.6
20260503043014 55 213 2.0 3.0 0.00 0.00 0.00 10 1014.6
20260503042514 54 213 2.0 3.0 0.00 0.00 0.00 10 1014.6
20260503042014 54 213 2.0 3.0 0.00 0.00 0.00 10 1014.5
20260503041514 54 213 0.0 1.0 0.00 0.00 0.00 10 1014.5
20260503041014 54 213 0.0 1.0 0.00 0.00 0.00 10 1014.6
20260503040514 54 213 0.0 1.0 0.00 0.00 0.00 10 1014.4
20260503040014 54 213 1.0 2.0 0.00 0.00 0.00 10 1014.5
20260503035514 54 213 1.0 2.0 0.00 0.00 0.00 10 1014.3
20260503035014 54 213 1.0 2.0 0.00 0.00 0.00 10 1014.2
20260503034513 54 213 2.0 3.0 0.00 0.00 0.00 10 1014.2
20260503034013 54 213 2.0 3.0 0.00 0.00 0.00 10 1014.3
20260503033513 55 199 0.0 1.0 0.00 0.00 0.00 10 1014.3
20260503033013 54 199 0.0 1.0 0.00 0.00 0.00 10 1014.1
20260503032513 54 199 0.0 1.0 0.00 0.00 0.00 10 1014.4
20260503032013 54 199 1.0 2.0 0.00 0.00 0.00 10 1014.5
20260503031513 55 199 1.0 2.0 0.00 0.00 0.00 10 1014.4
20260503031013 55 199 1.0 2.0 0.00 0.00 0.00 10 1014.4
20260503030513 55 199 0.0 1.0 0.00 0.00 0.00 10 1014.4
20260503030013 55 199 0.0 1.0 0.00 0.00 0.00 10 1014.4
20260503025513 55 199 1.0 2.0 0.00 0.00 0.00 10 1014.5
20260503025013 55 199 1.0 2.0 0.00 0.00 0.00 10 1014.5
20260503024513 55 199 1.0 2.0 0.00 0.00 0.00 10 1014.6
20260503024013 55 195 0.0 1.0 0.00 0.00 0.00 10 1014.4
20260503023513 56 195 1.0 2.0 0.00 0.00 0.00 10 1014.4
20260503023013 55 195 1.0 2.0 0.00 0.00 0.00 10 1014.5
20260503022513 56 195 1.0 2.0 0.00 0.00 0.00 10 1014.6
20260503022012 57 195 0.0 1.0 0.00 0.00 0.00 10 1014.5
20260503021512 56 195 1.0 2.0 0.00 0.00 0.00 10 1014.7
20260503021012 56 195 1.0 2.0 0.00 0.00 0.00 10 1014.7
20260503020512 56 195 1.0 2.0 0.00 0.00 0.00 10 1014.8
20260503020012 56 195 0.0 1.0 0.00 0.00 0.00 10 1014.8
20260503015512 56 195 0.0 1.0 0.00 0.00 0.00 10 1014.7
20260503015012 57 195 0.0 1.0 0.00 0.00 0.00 10 1014.8
20260503014512 57 195 1.0 2.0 0.00 0.00 0.00 10 1014.7
20260503014012 57 195 1.0 2.0 0.00 0.00 0.00 10 1014.7
20260503013512 56 195 1.0 2.0 0.00 0.00 0.00 10 1014.8
20260503013012 58 224 0.0 0.0 0.00 0.00 0.00 99 1014.7
20260503012512 58 224 0.0 0.0 0.00 0.00 0.00 98 1014.7
20260503012012 57 224 0.0 0.0 0.00 0.00 0.00 10 1014.8
20260503011512 58 224 1.0 1.0 0.00 0.00 0.00 97 1014.8
20260503011012 58 224 1.0 1.0 0.00 0.00 0.00 95 1014.8
20260503010512 58 224 0.0 0.0 0.00 0.00 0.00 96 1014.8
20260503010012 58 224 0.0 0.0 0.00 0.00 0.00 95 1014.8
20260503005512 58 224 0.0 0.0 0.00 0.00 0.00 95 1014.8
20260503005011 59 224 1.0 1.0 0.00 0.00 0.00 92 1014.8
20260503004511 59 224 1.0 1.0 0.00 0.00 0.00 92 1014.8
20260503004011 59 226 0.0 0.0 0.00 0.00 0.00 93 1014.9
20260503003511 59 226 0.0 0.0 0.00 0.00 0.00 92 1014.9
20260503003011 59 226 0.0 0.0 0.00 0.00 0.00 89 1015.0
20260503002511 60 226 1.0 1.0 0.00 0.00 0.00 89 1014.9
20260503002011 60 226 1.0 1.0 0.00 0.00 0.00 88 1014.9
20260503001511 60 130 0.0 0.0 0.00 0.00 0.00 88 1015.0
20260503001011 60 130 0.0 0.0 0.00 0.00 0.00 86 1015.0
20260503000511 60 130 0.0 0.0 0.00 0.00 0.00 86 1015.0
20260503000011 60 130 1.0 0.0 0.00 0.00 0.00 84 1014.9
20260502235511 61 130 1.0 0.0 0.00 0.00 0.00 84 1015.0
20260502235011 60 130 1.0 0.0 0.00 0.00 0.00 85 1015.1
20260502234511 61 241 0.0 1.0 0.00 0.00 0.00 84 1015.0
20260502234011 61 241 0.0 1.0 0.00 0.00 0.00 82 1015.0
20260502233510 61 241 0.0 1.0 0.00 0.00 0.00 83 1015.1
20260502233010 61 241 1.0 2.0 0.00 0.00 0.00 85 1015.1
20260502232510 62 0 0.0 0.0 0.00 0.00 0.00 82 1015.1
20260502232010 62 0 0.0 0.0 0.00 0.00 0.00 82 1015.1
20260502231510 62 0 1.0 0.0 0.00 0.00 0.00 82 1015.1
20260502231010 62 0 1.0 0.0 0.00 0.00 0.00 81 1015.1
20260502230510 62 0 1.0 0.0 0.00 0.00 0.00 81 1015.1
20260502230010 62 0 1.0 0.0 0.00 0.00 0.00 79 1015.1
20260502225510 62 0 1.0 0.0 0.00 0.00 0.00 79 1015.1
20260502225010 63 0 1.0 0.0 0.00 0.00 0.00 77 1015.2
20260502224510 63 0 1.0 0.0 0.00 0.00 0.00 76 1015.2
20260502224010 63 228 1.0 2.0 0.00 0.00 0.00 75 1015.2
20260502223510 63 228 1.0 2.0 0.00 0.00 0.00 74 1015.3
20260502223010 63 228 1.0 2.0 0.00 0.00 0.00 76 1015.2
20260502222510 64 290 0.0 0.0 0.00 0.00 0.00 72 1015.2